This is the latest recevied weather packets stored in our database for station/object N0LTM. If no packets are shown the sender has not sent any weather packets the latest 10 day(s).
| Time | Temp. | Humidity | Pressure | Rain* | Wind** | Luminosity | Snow |
|---|---|---|---|---|---|---|---|
| 1778085063 | 12.78° C | 34% | 1014.4 hPa | 0 mm | - | - | - |
| 1778084755 | 12.78° C | 34% | 1014.3 hPa | 0 mm | - | - | - |
| 1778080258 | 12.78° C | 41% | 1014.3 hPa | 0 mm | - | - | - |
| 1778078452 | 11.67° C | 44% | 1014.4 hPa | 0 mm | - | - | - |
| 1778075752 | 11.11° C | 50% | 1014.5 hPa | 0 mm | - | - | - |
| 1778073052 | 8.33° C | 59% | 1013.7 hPa | 0 mm | - | - | - |
| 1778072462 | 7.78° C | 64% | 1013.7 hPa | 0 mm | - | - | - |
| 1778072153 | 7.22° C | 69% | 1013.7 hPa | 0 mm | - | - | - |
| 1778070951 | 5.56° C | 80% | 1013.5 hPa | 0 mm | - | - | - |
| 1778070352 | 4.44° C | 83% | 1013.3 hPa | 0 mm | - | - | - |
| 1778070053 | 4.44° C | 84% | 1013.2 hPa | 0 mm | - | - | - |
| 1778067052 | 1.11° C | 85% | 1012.9 hPa | 0 mm | - | - | - |
| 1778065854 | 0.56° C | 84% | 1012.7 hPa | 0 mm | - | - | - |
| 1778064656 | 0.56° C | 83% | 1012.8 hPa | 0 mm | - | - | - |
| 1778063456 | 1.11° C | 81% | 1012.4 hPa | 0 mm | - | - | - |
| 1778062557 | 1.67° C | 80% | 1012.1 hPa | 0 mm | - | - | - |
| 1778062254 | 1.67° C | 80% | 1012.2 hPa | 0 mm | - | - | - |
| 1778061656 | 1.67° C | 79% | 1012.1 hPa | 0 mm | - | - | - |
| 1778058657 | 2.22° C | 73% | 1012 hPa | 0 mm | - | - | - |
| 1778058356 | 2.22° C | 72% | 1011.9 hPa | 0 mm | - | - | - |
| 1778057752 | 2.22° C | 71% | 1012.2 hPa | 0 mm | - | - | - |
| 1778057452 | 2.22° C | 71% | 1012.1 hPa | 0 mm | - | - | - |
| 1778056556 | 2.22° C | 69% | 1012 hPa | 0 mm | - | - | - |
| 1778056260 | 2.22° C | 68% | 1012.1 hPa | 0 mm | - | - | - |
| 1778055655 | 2.78° C | 67% | 1012.1 hPa | 0 mm | - | - | - |
* Rain latest hour (hover to see other rain measurements)
** Current wind speed in m/s (hover to see current wind gust speed)